Time,TemperatureF,DewpointF,PressureIn,WindDirection,WindDirectionDegrees,WindSpeedMPH,WindSpeedGustMPH,Humidity,HourlyPrecipIn,Conditions,Clouds,dailyrainin,SoftwareType,DateUTC
2013-01-28 00:04:00,19.8,1.0,30.37,WSW,247,1.7,-999.0,43,-99.99,,,0.00,Acu-Link.com,2013-01-28 05:04:00,
2013-01-28 00:19:00,19.0,1.2,30.37,SSW,202,2.2,-999.0,45,-99.99,,,0.00,Acu-Link.com,2013-01-28 05:19:00,
2013-01-28 00:34:00,18.9,1.1,30.36,SW,225,1.7,-999.0,45,-99.99,,,0.00,Acu-Link.com,2013-01-28 05:34:00,
2013-01-28 00:52:00,18.7,1.4,30.36,NE,45,1.1,-999.0,46,-99.99,,,0.00,Acu-Link.com,2013-01-28 05:52:00,
2013-01-28 01:09:00,18.3,1.5,30.36,WSW,247,0.0,-999.0,47,-99.99,,,0.00,Acu-Link.com,2013-01-28 06:09:00,
2013-01-28 01:24:00,17.6,2.2,30.36,NNW,337,1.7,-999.0,50,-99.99,,,0.00,Acu-Link.com,2013-01-28 06:24:00,
2013-01-28 01:40:00,17.4,2.0,30.38,West,270,0.0,-999.0,50,-99.99,,,0.00,Acu-Link.com,2013-01-28 06:40:00,
2013-01-28 01:55:00,17.6,2.2,30.37,SW,225,1.7,-999.0,50,-99.99,,,0.00,Acu-Link.com,2013-01-28 06:55:00,
2013-01-28 02:13:00,18.1,2.6,30.37,WNW,292,1.7,-999.0,50,-99.99,,,0.00,Acu-Link.com,2013-01-28 07:13:00,
2013-01-28 02:31:00,18.7,2.7,30.38,NNW,337,1.7,-999.0,49,-99.99,,,0.00,Acu-Link.com,2013-01-28 07:31:00,
2013-01-28 02:48:00,18.7,3.2,30.37,WNW,292,0.0,-999.0,50,-99.99,,,0.00,Acu-Link.com,2013-01-28 07:48:00,
2013-01-28 03:04:00,18.7,3.6,30.37,West,270,0.0,-999.0,51,-99.99,,,0.00,Acu-Link.com,2013-01-28 08:04:00,
2013-01-28 03:19:00,18.7,3.2,30.36,WNW,292,0.0,-999.0,50,-99.99,,,0.00,Acu-Link.com,2013-01-28 08:19:00,
2013-01-28 03:35:00,19.2,3.6,30.36,SW,225,3.2,-999.0,50,-99.99,,,0.00,Acu-Link.com,2013-01-28 08:35:00,
2013-01-28 03:50:00,19.6,4.9,30.37,West,270,2.2,-999.0,52,-99.99,,,0.00,Acu-Link.com,2013-01-28 08:50:00,
2013-01-28 04:15:00,19.9,4.7,30.37,NNE,22,1.1,-999.0,51,-99.99,,,0.00,Acu-Link.com,2013-01-28 09:15:00,
2013-01-28 04:30:00,19.9,4.3,30.35,WSW,247,1.1,-999.0,50,-99.99,,,0.00,Acu-Link.com,2013-01-28 09:30:00,
2013-01-28 04:45:00,19.9,4.3,30.35,SSW,202,1.1,-999.0,50,-99.99,,,0.00,Acu-Link.com,2013-01-28 09:45:00,
2013-01-28 05:00:00,19.9,4.3,30.35,ESE,112,1.1,-999.0,50,-99.99,,,0.00,Acu-Link.com,2013-01-28 10:00:00,
2013-01-28 05:16:00,20.3,4.2,30.34,SW,225,1.7,-999.0,49,-99.99,,,0.00,Acu-Link.com,2013-01-28 10:16:00,
2013-01-28 05:32:00,20.3,4.2,30.35,NE,45,1.7,-999.0,49,-99.99,,,0.00,Acu-Link.com,2013-01-28 10:32:00,
2013-01-28 05:48:00,20.1,4.9,30.35,SW,225,1.7,-999.0,51,-99.99,,,0.00,Acu-Link.com,2013-01-28 10:48:00,
2013-01-28 06:04:00,19.9,4.7,30.35,NNE,22,0.0,-999.0,51,-99.99,,,0.00,Acu-Link.com,2013-01-28 11:04:00,
2013-01-28 06:19:00,19.6,4.4,30.35,ENE,67,1.1,-999.0,51,-99.99,,,0.00,Acu-Link.com,2013-01-28 11:19:00,
2013-01-28 06:35:00,19.2,4.9,30.34,NNE,22,0.0,-999.0,53,-99.99,,,0.00,Acu-Link.com,2013-01-28 11:35:00,
2013-01-28 06:52:00,18.7,4.8,30.34,SSW,202,0.0,-999.0,54,-99.99,,,0.00,Acu-Link.com,2013-01-28 11:52:00,
2013-01-28 07:07:00,19.0,5.1,30.33,NE,45,0.0,-999.0,54,-99.99,,,0.00,Acu-Link.com,2013-01-28 12:07:00,
2013-01-28 07:23:00,19.8,5.9,30.35,NNW,337,0.0,-999.0,54,-99.99,,,0.00,Acu-Link.com,2013-01-28 12:23:00,
2013-01-28 07:39:00,19.9,6.0,30.34,SW,225,1.1,-999.0,54,-99.99,,,0.00,Acu-Link.com,2013-01-28 12:39:00,
2013-01-28 07:55:00,21.0,6.2,30.34,NNW,337,0.0,-999.0,52,-99.99,,,0.00,Acu-Link.com,2013-01-28 12:55:00,
2013-01-28 08:10:00,22.1,6.8,30.35,NW,315,0.0,-999.0,51,-99.99,,,0.00,Acu-Link.com,2013-01-28 13:10:00,
2013-01-28 08:25:00,23.4,6.6,30.34,North,0,1.1,-999.0,48,-99.99,,,0.00,Acu-Link.com,2013-01-28 13:25:00,
2013-01-28 08:40:00,24.6,7.7,30.33,SSW,202,0.0,-999.0,48,-99.99,,,0.00,Acu-Link.com,2013-01-28 13:40:00,
2013-01-28 08:56:00,25.5,5.6,30.34,West,270,2.2,-999.0,42,-99.99,,,0.00,Acu-Link.com,2013-01-28 13:56:00,
2013-01-28 09:11:00,26.8,5.8,30.33,NE,45,1.7,-999.0,40,-99.99,,,0.00,Acu-Link.com,2013-01-28 14:11:00,
2013-01-28 09:26:00,26.8,5.2,30.33,West,270,2.7,-999.0,39,-99.99,,,0.00,Acu-Link.com,2013-01-28 14:26:00,
2013-01-28 09:42:00,27.0,3.0,30.33,South,180,2.2,-999.0,35,-99.99,,,0.00,Acu-Link.com,2013-01-28 14:42:00,
2013-01-28 09:57:00,28.4,4.9,30.33,South,180,1.1,-999.0,36,-99.99,,,0.00,Acu-Link.com,2013-01-28 14:57:00,
2013-01-28 10:13:00,29.7,6.7,30.32,East,90,2.2,-999.0,37,-99.99,,,0.00,Acu-Link.com,2013-01-28 15:13:00,
2013-01-28 10:28:00,29.3,6.3,30.32,ENE,67,1.1,-999.0,37,-99.99,,,0.00,Acu-Link.com,2013-01-28 15:28:00,
2013-01-28 10:43:00,30.0,7.5,30.31,SSE,157,1.7,-999.0,38,-99.99,,,0.00,Acu-Link.com,2013-01-28 15:43:00,
2013-01-28 10:59:00,30.2,7.7,30.29,SSE,157,1.7,-999.0,38,-99.99,,,0.00,Acu-Link.com,2013-01-28 15:59:00,
2013-01-28 11:15:00,30.4,8.4,30.29,SSE,157,2.2,-999.0,39,-99.99,,,0.00,Acu-Link.com,2013-01-28 16:15:00,
2013-01-28 11:31:00,30.7,8.7,30.29,SE,135,1.7,-999.0,39,-99.99,,,0.00,Acu-Link.com,2013-01-28 16:31:00,
2013-01-28 11:47:00,30.7,9.8,30.27,ESE,112,3.2,-999.0,41,-99.99,,,0.00,Acu-Link.com,2013-01-28 16:47:00,
2013-01-28 12:02:00,31.1,10.7,30.25,West,270,0.0,-999.0,42,-99.99,,,0.00,Acu-Link.com,2013-01-28 17:02:00,
2013-01-28 12:18:00,31.1,9.6,30.25,SW,225,2.7,-999.0,40,-99.99,,,0.00,Acu-Link.com,2013-01-28 17:18:00,
2013-01-28 12:34:00,31.3,7.5,30.24,SSW,202,4.2,-999.0,36,-99.99,,,0.00,Acu-Link.com,2013-01-28 17:34:00,
2013-01-28 12:49:00,31.1,7.9,30.23,South,180,2.2,-999.0,37,-99.99,,,0.00,Acu-Link.com,2013-01-28 17:49:00,
2013-01-28 13:05:00,30.9,8.3,30.20,WSW,247,3.2,-999.0,38,-99.99,,,0.00,Acu-Link.com,2013-01-28 18:05:00,
2013-01-28 13:20:00,30.9,9.5,30.20,ESE,112,3.2,-999.0,40,-99.99,,,0.00,Acu-Link.com,2013-01-28 18:20:00,
2013-01-28 13:35:00,31.3,9.2,30.18,ESE,112,4.2,-999.0,39,-99.99,,,0.00,Acu-Link.com,2013-01-28 18:35:00,
2013-01-28 13:51:00,31.6,7.7,30.18,NE,45,1.7,-999.0,36,-99.99,,,0.00,Acu-Link.com,2013-01-28 18:51:00,
2013-01-28 14:06:00,32.0,9.3,30.15,NE,45,2.2,-999.0,38,-99.99,,,0.00,Acu-Link.com,2013-01-28 19:06:00,
2013-01-28 14:21:00,31.3,9.8,30.15,NW,315,1.7,-999.0,40,-99.99,,,0.00,Acu-Link.com,2013-01-28 19:21:00,
2013-01-28 14:37:00,30.9,13.1,30.14,NNE,22,1.1,-999.0,47,-99.99,,,0.00,Acu-Link.com,2013-01-28 19:37:00,
2013-01-28 14:53:00,30.4,17.0,30.15,North,0,2.2,-999.0,57,-99.99,,,0.00,Acu-Link.com,2013-01-28 19:53:00,
2013-01-28 15:08:00,29.3,19.0,30.14,SSW,202,6.3,-999.0,65,-99.99,,,0.00,Acu-Link.com,2013-01-28 20:08:00,
2013-01-28 15:23:00,28.0,20.2,30.13,SE,135,3.7,-999.0,72,-99.99,,,0.00,Acu-Link.com,2013-01-28 20:23:00,
2013-01-28 15:39:00,27.0,22.0,30.13,WSW,247,3.7,-999.0,81,-99.99,,,0.00,Acu-Link.com,2013-01-28 20:39:00,
2013-01-28 15:54:00,26.8,22.6,30.12,SW,225,3.2,-999.0,84,-99.99,,,0.00,Acu-Link.com,2013-01-28 20:54:00,
2013-01-28 16:10:00,26.4,22.2,30.12,South,180,1.7,-999.0,84,-99.99,,,0.00,Acu-Link.com,2013-01-28 21:10:00,
2013-01-28 16:25:00,26.4,22.2,30.11,NNE,22,0.0,-999.0,84,-99.99,,,0.00,Acu-Link.com,2013-01-28 21:25:00,
2013-01-28 16:41:00,26.2,22.3,30.11,ESE,112,1.7,-999.0,85,-99.99,,,0.00,Acu-Link.com,2013-01-28 21:41:00,
2013-01-28 16:57:00,26.1,22.8,30.09,SE,135,2.2,-999.0,87,-99.99,,,0.00,Acu-Link.com,2013-01-28 21:57:00,
2013-01-28 17:12:00,26.1,23.3,30.07,East,90,2.2,-999.0,89,-99.99,,,0.00,Acu-Link.com,2013-01-28 22:12:00,
2013-01-28 17:28:00,26.2,23.7,30.06,SSE,157,2.7,-999.0,90,-99.99,,,0.00,Acu-Link.com,2013-01-28 22:28:00,
2013-01-28 17:43:00,26.6,24.3,30.05,ENE,67,2.2,-999.0,91,-99.99,,,0.00,Acu-Link.com,2013-01-28 22:43:00,
2013-01-28 17:59:00,27.1,24.8,30.04,SSE,157,2.2,-999.0,91,-99.99,,,0.00,Acu-Link.com,2013-01-28 22:59:00,
2013-01-28 18:14:00,27.5,25.5,30.04,ESE,112,2.7,-999.0,92,-99.99,,,0.00,Acu-Link.com,2013-01-28 23:14:00,
2013-01-28 18:29:00,28.0,26.0,30.02,ESE,112,4.2,-999.0,92,-99.99,,,0.00,Acu-Link.com,2013-01-28 23:29:00,
2013-01-28 18:44:00,28.6,26.6,30.02,ESE,112,5.8,-999.0,92,-99.99,,,0.00,Acu-Link.com,2013-01-28 23:44:00,
2013-01-28 19:00:00,29.1,27.1,30.04,SE,135,4.2,-999.0,92,-99.99,,,0.00,Acu-Link.com,2013-01-29 00:00:00,
2013-01-28 19:15:00,29.1,26.8,30.00,ESE,112,4.7,-999.0,91,-99.99,,,0.00,Acu-Link.com,2013-01-29 00:15:00,
2013-01-28 19:30:00,29.5,27.2,30.00,NE,45,1.7,-999.0,91,-99.99,,,0.00,Acu-Link.com,2013-01-29 00:30:00,
2013-01-28 19:46:00,29.5,27.2,30.02,NNE,22,1.1,-999.0,91,-99.99,,,0.00,Acu-Link.com,2013-01-29 00:46:00,
2013-01-28 20:01:00,29.5,27.2,30.00,SSW,202,1.1,-999.0,91,-99.99,,,0.00,Acu-Link.com,2013-01-29 01:01:00,
2013-01-28 20:17:00,29.5,27.2,30.00,NW,315,0.0,-999.0,91,-99.99,,,0.00,Acu-Link.com,2013-01-29 01:17:00,
2013-01-28 20:32:00,29.5,27.5,29.99,South,180,1.7,-999.0,92,-99.99,,,0.00,Acu-Link.com,2013-01-29 01:32:00,
2013-01-28 20:47:00,29.7,27.7,29.98,ENE,67,1.7,-999.0,92,-99.99,,,0.00,Acu-Link.com,2013-01-29 01:47:00,
2013-01-28 21:04:00,29.8,28.0,29.97,NE,45,2.7,-999.0,93,-99.99,,,0.00,Acu-Link.com,2013-01-29 02:04:00,
2013-01-28 21:19:00,29.8,28.0,29.96,West,270,1.7,-999.0,93,-99.99,,,0.00,Acu-Link.com,2013-01-29 02:19:00,
2013-01-28 21:34:00,29.8,28.0,29.96,SE,135,4.7,-999.0,93,-99.99,,,0.00,Acu-Link.com,2013-01-29 02:34:00,
2013-01-28 21:49:00,29.8,28.0,29.95,SSE,157,4.2,-999.0,93,-99.99,,,0.00,Acu-Link.com,2013-01-29 02:49:00,
2013-01-28 22:05:00,29.8,28.0,29.95,South,180,0.0,-999.0,93,-99.99,,,0.00,Acu-Link.com,2013-01-29 03:05:00,
2013-01-28 22:20:00,30.0,28.2,29.94,ESE,112,1.7,-999.0,93,-99.99,,,0.00,Acu-Link.com,2013-01-29 03:20:00,
2013-01-28 22:35:00,30.0,28.2,29.95,SSW,202,0.0,-999.0,93,-99.99,,,0.00,Acu-Link.com,2013-01-29 03:35:00,
2013-01-28 22:51:00,30.0,28.2,29.94,West,270,0.0,-999.0,93,-99.99,,,0.00,Acu-Link.com,2013-01-29 03:51:00,
2013-01-28 23:06:00,30.0,28.2,29.95,WNW,292,0.0,-999.0,93,-99.99,,,0.00,Acu-Link.com,2013-01-29 04:06:00,
2013-01-28 23:22:00,30.2,28.4,29.94,West,270,0.0,-999.0,93,-99.99,,,0.00,Acu-Link.com,2013-01-29 04:22:00,
2013-01-28 23:38:00,30.2,28.4,29.94,SW,225,0.0,-999.0,93,-99.99,,,0.00,Acu-Link.com,2013-01-29 04:38:00,
2013-01-28 23:53:00,30.2,28.4,29.93,NNE,22,0.0,-999.0,93,-99.99,,,0.00,Acu-Link.com,2013-01-29 04:53:00,